Weather History for Alghero, Italy

Change the Weather History Date:

Saturday, October 6, 2012

  Actual Average Record
Temperature  
Mean Temperature 68 °F -  
Max Temperature 80 °F 69 °F 86 °F (2004)
Min Temperature 55 °F 53 °F 48 °F (1996)
Cooling Degree Days 2    
Growing Degree Days 18 (Base 50)    
Moisture  
Dew Point 61 °F    
Average Humidity 80    
Maximum Humidity 100    
Minimum Humidity 37    
Precipitation  
Precipitation 0.00 in 0.11 in - ()
Sea Level Pressure  
Sea Level Pressure 30.12 in    
Wind  
Wind Speed 3 mph ()    
Max Wind Speed 10 mph    
Max Gust Speed -    
Visibility 6.2 miles    
Events      
Averages and records for this station are not official NWS values.
T = Trace of Precipitation, MM = Missing Value Source: Averaged Metar Reports

Daily Weather History Graph

Daily Weather History Graph

Search for Another Location

Airport:

Trip Planner

Search our weather history database for the weather conditions in past years. The results will help you decide how hot, cold, wet, or windy it might be!

Date:

Astronomy

Oct. 06, 2012 Rise Set
Actual Time 7:28 AM CEST 7:00 PM CEST
Civil Twilight 7:01 AM CEST 7:27 PM CEST
Nautical Twilight 6:29 AM CEST 7:59 PM CEST
Astronomical Twilight 5:57 AM CEST 8:31 PM CEST
Moon 11:00 PM CEST (10/6) 1:12 PM CEST (10/6)
Length of Visible Light 12h 26m
Length of Day
11h 31m
Waning Gibbous, 68% of the Moon is Illuminated
Oct 6
Waning Gibbous
Oct 8
Last Quarter
Oct 15
New
Oct 22
First Quarter
Oct 29
Full

Hourly Weather History & Observations

Time (CEST) Temp. Heat Index Dew Point Humidity Pressure Visibility Wind Dir Wind Speed Gust Speed Precip Events Conditions
12:20 AM 60.8 °F - 60.8 °F 100% 30.12 in - Variable 1.2 mph - N/A   Clear
12:50 AM 60.8 °F - 59.0 °F 94% 30.12 in - NE 3.5 mph - N/A   Clear
1:20 AM 60.8 °F - 59.0 °F 94% 30.12 in - Variable 2.3 mph - N/A   Clear
1:50 AM 59.0 °F - 59.0 °F 100% 30.12 in - Calm Calm - N/A   Clear
2:20 AM 59.0 °F - 57.2 °F 94% 30.12 in - Variable 2.3 mph - N/A   Clear
2:50 AM 57.2 °F - 57.2 °F 100% 30.12 in - Calm Calm - N/A   Clear
3:20 AM 59.0 °F - 57.2 °F 94% 30.12 in - North 3.5 mph - N/A   Clear
3:50 AM 57.2 °F - 55.4 °F 94% 30.12 in - Calm Calm - N/A   Clear
4:20 AM 59.0 °F - 57.2 °F 94% 30.12 in - Calm Calm - N/A   Clear
4:50 AM 57.2 °F - 57.2 °F 100% 30.12 in - WSW 2.3 mph - N/A   Clear
5:20 AM 57.2 °F - 57.2 °F 100% 30.12 in - Variable 1.2 mph - N/A   Clear
5:50 AM 57.2 °F - 55.4 °F 94% 30.12 in - Variable 2.3 mph - N/A   Clear
6:20 AM 57.2 °F - 55.4 °F 94% 30.12 in - NE 2.3 mph - N/A   Clear
6:50 AM 55.4 °F - 55.4 °F 100% 30.12 in - NNE 3.5 mph - N/A   Clear
7:20 AM 57.2 °F - 55.4 °F 94% 30.12 in - North 3.5 mph - N/A   Clear
7:50 AM 57.2 °F - 55.4 °F 94% 30.12 in - NNE 3.5 mph - N/A   Clear
8:20 AM 60.8 °F - 59.0 °F 94% 30.12 in - North 3.5 mph - N/A   Clear
8:50 AM 62.6 °F - 60.8 °F 94% 30.12 in - North 2.3 mph - N/A   Clear
9:20 AM 66.2 °F - 62.6 °F 88% 30.12 in - NNE 4.6 mph - N/A   Clear
9:50 AM 71.6 °F - 62.6 °F 73% 30.12 in - NNE 3.5 mph - N/A   Clear
10:20 AM 75.2 °F - 59.0 °F 57% 30.12 in - NNE 5.8 mph - N/A   Clear
10:50 AM 78.8 °F - 59.0 °F 51% 30.12 in - NNE 3.5 mph - N/A   Clear
11:20 AM 80.6 °F 81.1 °F 59.0 °F 48% 30.12 in - Variable 2.3 mph - N/A   Clear
11:50 AM 78.8 °F - 64.4 °F 61% 30.15 in - WNW 8.1 mph - N/A   Clear
12:20 PM 78.8 °F - 64.4 °F 61% 30.15 in - WNW 8.1 mph - N/A   Clear
12:50 PM 78.8 °F - 64.4 °F 61% 30.12 in - WNW 8.1 mph - N/A   Clear
1:20 PM 78.8 °F - 62.6 °F 57% 30.12 in - WNW 8.1 mph - N/A   Clear
1:50 PM 80.6 °F 81.5 °F 60.8 °F 51% 30.12 in - West 8.1 mph - N/A   Clear
2:20 PM 80.6 °F - 51.8 °F 37% 30.12 in - SSW 10.4 mph - N/A   Clear
2:50 PM 80.6 °F 80.8 °F 57.2 °F 45% 30.12 in - SSW 9.2 mph - N/A   Clear
3:20 PM 78.8 °F - 60.8 °F 54% 30.12 in - South 9.2 mph - N/A   Clear
3:50 PM 78.8 °F - 62.6 °F 57% 30.12 in - South 10.4 mph - N/A   Clear
4:20 PM 78.8 °F - 60.8 °F 54% 30.12 in - South 10.4 mph - N/A   Clear
4:50 PM 78.8 °F - 64.4 °F 61% 30.12 in - SSW 9.2 mph - N/A   Clear
5:20 PM 77.0 °F - 66.2 °F 69% 30.09 in - South 5.8 mph - N/A   Clear
5:50 PM 75.2 °F - 66.2 °F 73% 30.12 in - South 6.9 mph - N/A   Clear
6:20 PM 73.4 °F - 66.2 °F 78% 30.09 in - South 8.1 mph - N/A   Clear
6:50 PM 71.6 °F - 66.2 °F 83% 30.12 in - SW 5.8 mph - N/A   Clear
7:20 PM 69.8 °F - 66.2 °F 88% 30.12 in - SW 2.3 mph - N/A   Clear
7:50 PM 68.0 °F - 64.4 °F 88% 30.12 in - Variable 1.2 mph - N/A   Clear
8:20 PM 68.0 °F - 64.4 °F 88% 30.12 in - Variable 1.2 mph - N/A   Clear
8:50 PM 66.2 °F - 62.6 °F 88% 30.12 in - Variable 1.2 mph - N/A   Clear
9:20 PM 68.0 °F - 64.4 °F 88% 30.12 in 6.2 mi Variable 2.3 mph - N/A   Scattered Clouds
9:50 PM 66.2 °F - 64.4 °F 94% 30.12 in 6.2 mi Variable 1.2 mph - N/A   Partly Cloudy
10:20 PM 66.2 °F - 64.4 °F 94% 30.12 in 6.2 mi Calm Calm - N/A   Partly Cloudy
10:50 PM 66.2 °F - 62.6 °F 88% 30.12 in 6.2 mi Variable 2.3 mph - N/A   Partly Cloudy
11:20 PM 66.2 °F - 62.6 °F 88% 30.12 in 6.2 mi North 3.5 mph - N/A   Partly Cloudy
11:50 PM 64.4 °F - 62.6 °F 94% 30.12 in 6.2 mi NE 3.5 mph - N/A   Scattered Clouds